| time (UTC) | temp C | wind direction | speed KPH | gust KPH | rain 1hr cm | rain 24hr cm | rain mn cm | humidity % | barometer mb |
| 20260508193026 | 10 | 350 | 6.4 | 22.5 | 0.00 | 1.85 | 0.00 | 74 | 1001.3 |
| 20260508191530 | 10 | 4 | 12.9 | 20.9 | 0.00 | 1.85 | 0.00 | 73 | 1001.3 |
| 20260508190033 | 10 | 9 | 12.9 | 25.7 | 0.00 | 1.85 | 0.00 | 75 | 1001.2 |
| 20260508184526 | 10 | 62 | 9.7 | 22.5 | 0.00 | 2.49 | 0.00 | 73 | 1001.1 |
| 20260508183023 | 11 | 23 | 9.7 | 24.1 | 0.00 | 2.49 | 0.00 | 69 | 1001.1 |
| 20260508181542 | 11 | 4 | 9.7 | 24.1 | 0.00 | 2.49 | 0.00 | 70 | 1001.3 |
| 20260508180022 | 11 | 360 | 12.9 | 24.1 | 0.00 | 2.49 | 0.00 | 71 | 1001.3 |
| 20260508174525 | 11 | 355 | 16.1 | 24.1 | 0.00 | 2.49 | 0.00 | 68 | 1001.2 |
| 20260508173018 | 12 | 14 | 9.7 | 22.5 | 0.00 | 2.49 | 0.00 | 71 | 1001.2 |
| 20260508171515 | 11 | 23 | 9.7 | 17.7 | 0.00 | 2.49 | 0.00 | 73 | 1001.3 |
| 20260508170014 | 10 | 43 | 12.9 | 19.3 | 0.00 | 2.49 | 0.00 | 76 | 1001.5 |
| 20260508164517 | 10 | 58 | 6.4 | 19.3 | 0.00 | 2.49 | 0.00 | 78 | 1001.4 |
| 20260508163010 | 9 | 6 | 8.0 | 16.1 | 0.00 | 2.49 | 0.00 | 77 | 1001.5 |
| 20260508161509 | 9 | 33 | 8.0 | 14.5 | 0.00 | 2.49 | 0.00 | 78 | 1001.5 |
| 20260508160020 | 9 | 33 | 11.3 | 17.7 | 0.00 | 2.49 | 0.00 | 78 | 1001.5 |
| 20260508154511 | 10 | 56 | 6.4 | 16.1 | 0.00 | 2.49 | 0.00 | 77 | 1001.5 |
| 20260508153007 | 10 | 360 | 4.8 | 19.3 | 0.00 | 2.49 | 0.00 | 79 | 1001.3 |
| 20260508151507 | 10 | 355 | 8.0 | 19.3 | 0.00 | 2.49 | 0.00 | 79 | 1001.4 |
| 20260508150006 | 10 | 36 | 9.7 | 19.3 | 0.00 | 2.49 | 0.00 | 79 | 1001.6 |
| 20260508144505 | 10 | 37 | 4.8 | 19.3 | 0.00 | 2.49 | 0.00 | 82 | 1001.7 |
| 20260508143003 | 10 | 7 | 9.7 | 19.3 | 0.00 | 2.49 | 0.00 | 83 | 1001.7 |
| 20260508141509 | 10 | 335 | 4.8 | 17.7 | 0.00 | 2.49 | 0.00 | 84 | 1002.1 |
| 20260508140003 | 10 | 20 | 9.7 | 19.3 | 0.00 | 2.49 | 0.00 | 83 | 1002.0 |
| 20260508134501 | 10 | 360 | 4.8 | 14.5 | 0.00 | 2.49 | 0.00 | 86 | 1002.4 |
| 20260508133104 | 10 | 344 | 6.4 | 16.1 | 0.00 | 2.49 | 0.00 | 86 | 1002.5 |
| 20260508131607 | 10 | 11 | 9.7 | 24.1 | 0.00 | 2.49 | 0.00 | 85 | 1002.3 |
| 20260508130058 | 10 | 350 | 6.4 | 22.5 | 0.00 | 2.49 | 0.00 | 86 | 1002.0 |
| 20260508124555 | 9 | 19 | 6.4 | 14.5 | 0.00 | 2.49 | 0.00 | 91 | 1002.0 |
| 20260508123052 | 8 | 23 | 4.8 | 17.7 | 0.00 | 2.49 | 0.00 | 94 | 1001.9 |
| 20260508121557 | 8 | 12 | 6.4 | 9.7 | 0.00 | 2.49 | 0.00 | 99 | 1002.0 |
| 20260508120056 | 7 | 19 | 6.4 | 12.9 | 0.00 | 2.49 | 0.00 | 100 | 1002.2 |
| 20260508114548 | 7 | 8 | 3.2 | 8.0 | 0.00 | 2.51 | 0.00 | 100 | 1002.5 |
| 20260508113055 | 6 | 360 | 4.8 | 14.5 | 0.00 | 2.51 | 0.00 | 100 | 1002.0 |
| 20260508111556 | 6 | 5 | 3.2 | 6.4 | 0.00 | 2.51 | 0.00 | 100 | 1002.2 |
| 20260508110057 | 5 | 5 | 0.0 | 4.8 | 0.00 | 2.51 | 0.00 | 100 | 1002.4 |
| 20260508104545 | 5 | 5 | 0.0 | 4.8 | 0.00 | 2.54 | 0.00 | 100 | 1002.5 |
| 20260508103102 | 5 | 5 | 1.6 | 4.8 | 0.00 | 2.54 | 0.00 | 100 | 1002.7 |
| 20260508101548 | 4 | 5 | 0.0 | 0.0 | 0.00 | 2.54 | 0.00 | 100 | 1002.6 |
| 20260508100042 | 4 | 5 | 0.0 | 0.0 | 0.00 | 2.54 | 0.00 | 100 | 1002.4 |
| 20260508094601 | 4 | 5 | 0.0 | 0.0 | 0.00 | 2.64 | 0.00 | 100 | 1002.1 |
| 20260508093041 | 4 | 5 | 0.0 | 0.0 | 0.00 | 2.64 | 0.00 | 100 | 1001.9 |
| 20260508091539 | 4 | 5 | 0.0 | 0.0 | 0.00 | 2.64 | 0.00 | 100 | 1001.8 |
| 20260508090041 | 4 | 5 | 1.6 | 3.2 | 0.00 | 2.64 | 0.00 | 100 | 1002.1 |
| 20260508084537 | 4 | 5 | 0.0 | 3.2 | 0.00 | 2.77 | 0.00 | 100 | 1002.2 |
| 20260508083037 | 4 | 5 | 0.0 | 6.4 | 0.00 | 2.77 | 0.00 | 100 | 1001.7 |
| 20260508081533 | 4 | 5 | 3.2 | 6.4 | 0.00 | 2.77 | 0.00 | 100 | 1001.5 |
| 20260508080036 | 4 | 7 | 4.8 | 9.7 | 0.00 | 2.77 | 0.00 | 100 | 1001.4 |
| 20260508074531 | 4 | 7 | 0.0 | 6.4 | 0.00 | 2.84 | 0.00 | 100 | 1001.6 |
| 20260508073030 | 4 | 7 | 3.2 | 12.9 | 0.00 | 2.84 | 0.00 | 100 | 1001.5 |
| 20260508071529 | 5 | 342 | 4.8 | 14.5 | 0.00 | 2.84 | 0.00 | 100 | 1001.6 |
| 20260508070025 | 5 | 322 | 1.6 | 9.7 | 0.00 | 2.84 | 0.00 | 100 | 1001.7 |
| 20260508064533 | 5 | 321 | 3.2 | 9.7 | 0.00 | 2.84 | 0.00 | 100 | 1001.4 |
| 20260508063022 | 6 | 316 | 3.2 | 6.4 | 0.00 | 2.84 | 0.00 | 100 | 1001.5 |
| 20260508061519 | 6 | 316 | 1.6 | 8.0 | 0.00 | 2.84 | 0.00 | 100 | 1001.7 |
| 20260508060016 | 6 | 316 | 1.6 | 8.0 | 0.00 | 2.84 | 0.00 | 100 | 1001.6 |
| 20260508054513 | 7 | 316 | 3.2 | 9.7 | 0.00 | 2.84 | 0.00 | 100 | 1001.5 |
| 20260508053015 | 7 | 316 | 3.2 | 9.7 | 0.00 | 2.84 | 0.00 | 100 | 1001.5 |
| 20260508051503 | 8 | 316 | 3.2 | 6.4 | 0.00 | 2.84 | 0.00 | 100 | 1001.2 |
| 20260508050005 | 8 | 316 | 0.0 | 4.8 | 0.00 | 2.84 | 0.00 | 100 | 1001.2 |
| 20260508044602 | 8 | 316 | 1.6 | 4.8 | 0.00 | 2.84 | 0.00 | 100 | 1001.3 |
| 20260508043102 | 8 | 316 | 0.0 | 4.8 | 0.00 | 2.84 | 0.00 | 100 | 1001.2 |
| 20260508041557 | 8 | 316 | 3.2 | 8.0 | 0.00 | 2.84 | 0.00 | 100 | 1001.3 |
| 20260508040052 | 9 | 315 | 0.0 | 3.2 | 0.00 | 2.84 | 0.00 | 100 | 1001.4 |
| 20260508034555 | 9 | 315 | 0.0 | 3.2 | 0.00 | 2.84 | 0.00 | 100 | 1001.6 |
| 20260508033049 | 9 | 315 | 1.6 | 8.0 | 0.00 | 2.84 | 0.00 | 100 | 1001.5 |
| 20260508031547 | 9 | 315 | 1.6 | 14.5 | 0.00 | 2.84 | 0.00 | 100 | 1001.6 |
| 20260508030046 | 9 | 214 | 1.6 | 4.8 | 0.00 | 2.84 | 0.00 | 100 | 1001.8 |
| 20260508024548 | 8 | 214 | 1.6 | 6.4 | 0.00 | 2.84 | 2.84 | 100 | 1001.7 |
| 20260508023043 | 8 | 214 | 0.0 | 4.8 | 0.00 | 2.84 | 2.84 | 100 | 1001.4 |
| 20260508021546 | 9 | 214 | 0.0 | 9.7 | 0.00 | 2.84 | 2.84 | 100 | 1001.5 |
| 20260508020042 | 9 | 210 | 3.2 | 11.3 | 0.00 | 2.84 | 2.84 | 100 | 1001.5 |
| 20260508014549 | 9 | 210 | 4.8 | 12.9 | 0.00 | 2.84 | 2.84 | 100 | 1001.5 |
| 20260508013044 | 9 | 211 | 6.4 | 14.5 | 0.00 | 2.84 | 2.84 | 100 | 1001.3 |
| 20260508011542 | 10 | 211 | 3.2 | 16.1 | 0.00 | 2.84 | 2.84 | 100 | 1001.2 |
| 20260508010037 | 10 | 222 | 4.8 | 17.7 | 0.00 | 2.84 | 2.84 | 100 | 1001.4 |
| 20260508004536 | 10 | 210 | 8.0 | 16.1 | 0.00 | 2.84 | 2.84 | 100 | 1001.4 |
| 20260508003053 | 10 | 207 | 6.4 | 14.5 | 0.00 | 2.84 | 2.84 | 100 | 1001.5 |
| 20260508001534 | 10 | 215 | 6.4 | 12.9 | 0.00 | 2.84 | 2.84 | 100 | 1001.6 |
| 20260508000034 | 10 | 230 | 8.0 | 16.1 | 0.00 | 2.84 | 2.84 | 100 | 1001.7 |
| 20260507234531 | 10 | 204 | 9.7 | 16.1 | 0.00 | 2.84 | 2.84 | 100 | 1001.8 |
| 20260507233034 | 10 | 197 | 4.8 | 16.1 | 0.00 | 2.84 | 2.84 | 100 | 1001.5 |
| 20260507231530 | 10 | 210 | 6.4 | 24.1 | 0.00 | 2.84 | 2.84 | 100 | 1002.0 |
| 20260507230028 | 10 | 217 | 9.7 | 17.7 | 0.00 | 2.84 | 2.84 | 100 | 1001.8 |
| 20260507224525 | 10 | 208 | 8.0 | 25.7 | 0.00 | 2.84 | 2.84 | 100 | 1002.0 |
| 20260507223022 | 10 | 218 | 4.8 | 19.3 | 0.00 | 2.84 | 2.84 | 100 | 1001.8 |
| 20260507221523 | 10 | 206 | 6.4 | 24.1 | 0.03 | 2.84 | 2.84 | 100 | 1002.1 |
| 20260507220020 | 10 | 250 | 6.4 | 16.1 | 0.05 | 2.84 | 2.84 | 100 | 1002.3 |
| 20260507214519 | 10 | 232 | 6.4 | 19.3 | 0.13 | 2.84 | 2.84 | 100 | 1002.2 |
| 20260507213016 | 10 | 229 | 8.0 | 16.1 | 0.20 | 2.84 | 2.84 | 100 | 1002.0 |
| 20260507211516 | 10 | 204 | 8.0 | 17.7 | 0.43 | 2.82 | 2.82 | 100 | 1001.7 |
| 20260507210012 | 10 | 190 | 4.8 | 16.1 | 0.64 | 2.79 | 2.79 | 100 | 1001.8 |
| 20260507204509 | 10 | 195 | 4.8 | 17.7 | 0.86 | 2.72 | 2.72 | 100 | 1002.7 |
| 20260507203012 | 10 | 198 | 4.8 | 12.9 | 1.14 | 2.64 | 2.64 | 100 | 1002.9 |
| 20260507201504 | 10 | 196 | 1.6 | 16.1 | 1.17 | 2.39 | 2.39 | 99 | 1003.4 |
| 20260507200001 | 10 | 194 | 9.7 | 22.5 | 1.17 | 2.13 | 2.13 | 99 | 1003.8 |
| 20260507194603 | 10 | 191 | 8.0 | 20.9 | 1.12 | 1.85 | 1.85 | 99 | 1004.2 |